Location: ČR
(50.0000°N, 15.0000°E)
Time: 12:56:46
(UTC+00:00)

O/OREOS (USA 219) - Pass Details

Date: 12 December 2021
Orbit: 621 x 646 km, 72.0° (Epoch: 22 May)

Event Time Altitude Azimuth Distance (km) Brightness Sun altitude
Rises 16:44:46 0° 338° (NNW) 2,957 ? -16.1°
Reaches altitude 10° 16:47:22 10° 351° (N) 2,048 ? -16.5°
Enters shadow 16:50:50 26° 39° (NE) 1,274 ? -17.0°
